Location: *
(51.8167°N, 12.5000°E)
Time: 04:07:43
(UTC+00:00)

ERBS - Pass Details

Date: 16 September 2019
Orbit: 418 x 425 km, 57.0° (Epoch: 19 October)

Event Time Altitude Azimuth Distance (km) Brightness Sun altitude
Rises 19:10:00 0° 295° (WNW) 2,395 7.9 -16.6°
Reaches altitude 10° 19:12:10 10° 303° (WNW) 1,527 6.4 -16.9°
Maximum altitude 19:15:27 44° 16° (NNE) 608 3.1 -17.4°
Enters shadow 19:16:24 34° 60° (ENE) 729 3.1 -17.5°
